Simultaneous Nadir Overpasses (SNOs) Predictions

Prediction of SNOs between NOAA-19 and TERRA Satellite Orbit:

Table of predicted SNOs for the next 14.0 days since TLE Epoch: 4/12/2013
Index Date (NOAA-19) Time (NOAA-19) Lat,Lon (NOAA-19) SZA (NOAA-19 ) Date (TERRA) Time (TERRA) Lat,Lon (TERRA) SZA (TERRA ) Distance(km) Time Diff (sec)
1 04/13/2013 16:44:43 -69.35, 108.66 120.04 04/13/2013 16:45:07 -69.33, 108.59 120.07 3.60 24
2 04/13/2013 17:35:44 69.21, -83.90 59.81 04/13/2013 17:34:34 69.22, -83.90 59.82 1.72 70
3 04/15/2013 21:29:06 -69.35, 37.58 120.83 04/15/2013 21:29:24 -69.34, 37.53 120.84 2.26 18
4 04/15/2013 22:20:05 69.07,-154.79 58.89 04/15/2013 22:18:53 69.12,-155.11 58.93 13.36 72
5 04/18/2013 01:22:49 70.40, 157.63 59.48 04/18/2013 01:23:55 70.32, 160.20 59.39 96.37 66
6 04/18/2013 02:13:29 -69.36, -33.52 121.59 04/18/2013 02:13:40 -69.39, -33.47 121.57 3.39 11
7 04/18/2013 03:04:25 68.90, 134.37 57.94 04/18/2013 03:03:13 68.94, 133.60 57.98 31.02 72
8 04/20/2013 06:07:08 70.19, 86.88 58.51 04/20/2013 06:08:16 70.08, 88.78 58.39 72.80 68
9 04/20/2013 06:57:51 -69.34,-104.56 122.38 04/20/2013 06:57:57 -69.37,-104.57 122.35 3.51 6
10 04/20/2013 07:48:43 68.63, 63.65 56.92 04/20/2013 07:47:33 68.75, 62.29 57.03 56.41 70
11 04/22/2013 10:51:27 70.00, 16.11 57.56 04/22/2013 10:52:36 69.88, 17.43 57.44 52.05 69
12 04/22/2013 11:42:13 -69.32,-175.62 123.13 04/22/2013 11:42:14 -69.33,-175.68 123.12 2.46 1
13 04/22/2013 12:33:02 68.44, -7.17
